Simultaneous Nadir Overpasses (SNOs) Predictions

Prediction of SNOs between AQUA and NPP Satellite Orbit:

Table of predicted SNOs for the next 14.0 days since TLE Epoch: 7/5/2025
Index Date (AQUA) Time (AQUA) Lat,Lon (AQUA) SZA (AQUA ) Date (NPP) Time (NPP) Lat,Lon (NPP) SZA (NPP ) Distance(km) Time Diff (sec)
1 07/05/2025 09:25:06 -81.27, 152.65 115.88 07/05/2025 09:24:24 -81.28, 152.79 115.88 2.71 42
2 07/05/2025 10:14:23 81.28, -39.50 64.10 07/05/2025 10:15:08 81.28, -39.42 64.06 1.38 45
3 07/07/2025 18:56:02 -81.28, 10.27 115.67 07/07/2025 18:55:20 -81.28, 10.17 115.63 1.84 42
4 07/07/2025 19:45:20 81.27, 177.72 64.37 07/07/2025 19:46:05 81.28, 177.57 64.37 2.68 45
5 07/10/2025 04:26:58 -81.27,-132.67 115.35 07/10/2025 04:26:15 -81.28,-132.48 115.34 3.27 43
6 07/10/2025 05:16:15 81.28, 35.14 64.65 07/10/2025 05:16:59 81.28, 35.31 64.60 2.80 44
7 07/12/2025 13:57:53 -81.29, 84.98 115.06 07/12/2025 13:57:11 -81.28, 84.85 115.02 2.32 42
8 07/12/2025 14:47:11 81.27,-107.62 64.98 07/12/2025 14:47:56 81.28,-107.76 64.98 2.48 45
9 07/14/2025 23:28:49 -81.27, -57.95 114.67 07/14/2025 23:28:07 -81.28, -57.85 114.66 1.73 42
10 07/15/2025 00:18:06 81.28, 109.83 65.32 07/15/2025 00:18:51 81.28, 109.93 65.28 1.75 45
11 07/17/2025 08:59:44 -81.27, 159.33 114.28 07/17/2025 08:59:03 -81.28, 159.43 114.26 1.89 41



Historial Predications of SNOs between AQUA and NPP
